Location: Unspecified
(0.0000°N, 0.0000°E)
Time: 22:02:12
(UTC+00:00)

ACS3 Solar Sail - Pass Details

Date: 09 November 2024
Orbit: 961 x 1024 km, 97.5° (Epoch: 02 November)

Event Time Altitude Azimuth Distance (km) Brightness Sun altitude
Rises 20:13:43 0° 178° (S) 3,756 5.1 -35.5°
Reaches altitude 10° 20:16:17 10° 182° (S) 2,804 4.4 -36.1°
Enters shadow 20:20:31 41° 207° (SSW) 1,446 2.8 -37.1°
